Location: Oakhurst
(33.6448°N, 111.9543°W)
Time: 07:32:51
(UTC+00:00)

Envisat - Pass Details

Date: 15 May 2021
Orbit: 764 x 766 km, 98.1° (Epoch: 21 June)

Event Time Altitude Azimuth Distance (km) Brightness Sun altitude
Rises 11:29:58 0° 40° (NE) 3,233 7.8 -11.3°
Reaches altitude 10° 11:34:12 10° 74° (ENE) 2,300 6.9 -10.6°
Maximum altitude 11:35:42 11° 91° (E) 2,214 6.3 -10.3°
Drops below altitude 10° 11:37:11 10° 109° (ESE) 2,296 6.1 -10.0°
Sets 11:41:22 0° 143° (SE) 3,215 6.3 -9.3°
